CW7615 Weather Reports


Display with metric or nautical units.
time (UTC)temp
F
wind
direction
speed
MPH
gust
MPH
rain 1hr
in
rain 24hr
in
rain mn
in
humidity
%
barometer
mb
20260906093040 86 119 5.0 9.0 0.00 0.00 0.00 49 1021.2
20260906092537 87 82 4.0 9.0 0.00 0.00 0.00 49 1021.2
20260906092032 86 142 5.0 9.0 0.00 0.00 0.00 48 1021.3
20260906091534 86 140 4.0 9.0 0.00 0.00 0.00 48 1021.2
20260906091030 86 141 3.0 9.0 0.00 0.00 0.00 47 1021.2
20260906090528 86 150 4.0 10.0 0.00 0.00 0.00 47 1021.2
20260906090028 86 119 5.0 10.0 0.00 0.00 0.00 47 1021.2
20260906085527 86 98 4.0 9.0 0.00 0.00 0.00 47 1021.1
20260906085030 86 157 3.0 8.0 0.00 0.00 0.00 47 1021.2
20260906084541 86 138 2.0 7.0 0.00 0.00 0.00 47 1021.1
20260906084025 86 146 2.0 7.0 0.00 0.00 0.00 48 1021.2
20260906083522 86 136 3.0 7.0 0.00 0.00 0.00 47 1021.1
20260906083029 86 134 4.0 7.0 0.00 0.00 0.00 48 1021.1
20260906082519 86 128 3.0 5.0 0.00 0.00 0.00 48 1021.2
20260906082022 86 133 2.0 5.0 0.00 0.00 0.00 48 1021.1
20260906081517 86 141 1.0 3.0 0.00 0.00 0.00 48 1021.1
20260906081015 86 82 1.0 3.0 0.00 0.00 0.00 47 1021.1
20260906080514 85 74 1.0 3.0 0.00 0.00 0.00 48 1021.0
20260906080016 85 69 0.0 2.0 0.00 0.00 0.00 48 1021.0
20260906075511 84 15 0.0 3.0 0.00 0.00 0.00 47 1021.0
20260906075009 83 217 0.0 3.0 0.00 0.00 0.00 49 1020.8
20260906074508 82 355 1.0 4.0 0.00 0.00 0.00 46 1020.8
20260906074006 82 348 1.0 4.0 0.00 0.00 0.00 47 1020.8
20260906073506 81 344 1.0 5.0 0.00 0.00 0.00 46 1020.7
20260906073003 80 355 2.0 8.0 0.00 0.00 0.00 47 1020.7
20260906072502 80 355 4.0 9.0 0.00 0.00 0.00 47 1020.6
20260906072000 79 345 4.0 9.0 0.00 0.00 0.00 47 1020.7
20260906071603 79 346 3.0 9.0 0.00 0.00 0.00 47 1020.8
20260906071059 78 343 4.0 9.0 0.00 0.00 0.00 48 1020.7
20260906070556 78 360 5.0 9.0 0.00 0.00 0.00 48 1020.6
20260906070057 77 355 5.0 9.0 0.00 0.00 0.00 48 1020.7
20260906065555 77 346 4.0 8.0 0.00 0.00 0.00 49 1020.6
20260906065053 77 327 4.0 8.0 0.00 0.00 0.00 49 1020.5
20260906064551 77 338 4.0 10.0 0.00 0.00 0.00 49 1020.5
20260906064054 77 350 5.0 10.0 0.00 0.00 0.00 49 1020.4
20260906063555 77 342 7.0 10.0 0.00 0.00 0.00 48 1020.3
20260906063056 77 338 6.0 10.0 0.00 0.00 0.00 49 1020.2
20260906062553 77 328 5.0 11.0 0.00 0.00 0.00 49 1020.2
20260906062050 76 355 7.0 11.0 0.00 0.00 0.00 49 1020.1
20260906061553 76 355 7.0 12.0 0.00 0.00 0.00 49 1020.0
20260906061046 76 343 8.0 12.0 0.00 0.00 0.00 50 1020.1
20260906060546 76 350 8.0 12.0 0.00 0.00 0.00 50 1020.1
20260906060046 76 344 7.0 12.0 0.00 0.00 0.00 50 1020.2
20260906055545 76 345 7.0 11.0 0.00 0.00 0.00 50 1020.4
20260906055044 76 300 6.0 10.0 0.00 0.00 0.00 50 1020.1
20260906054544 76 299 6.0 11.0 0.00 0.00 0.00 50 1020.1
20260906054044 76 340 6.0 11.0 0.00 0.00 0.00 50 1020.0
20260906053544 76 331 6.0 11.0 0.00 0.00 0.00 50 1019.8
20260906053050 76 346 7.0 10.0 0.00 0.00 0.00 50 1019.8
20260906052542 76 10 7.0 11.0 0.00 0.00 0.00 50 1019.8
20260906052043 76 355 7.0 10.0 0.00 0.00 0.00 50 1019.8
20260906051542 76 360 8.0 10.0 0.00 0.00 0.00 50 1019.7
20260906051042 76 9 6.0 10.0 0.00 0.00 0.00 50 1019.8
20260906050544 76 5 6.0 11.0 0.00 0.00 0.00 51 1019.7
20260906050043 76 360 7.0 11.0 0.00 0.00 0.00 51 1019.8
20260906045543 76 342 8.0 11.0 0.00 0.00 0.00 51 1019.6
20260906045042 76 336 6.0 11.0 0.00 0.00 0.00 51 1019.8
20260906044539 76 360 6.0 11.0 0.00 0.00 0.00 51 1019.8
20260906044038 76 348 7.0 10.0 0.00 0.00 0.00 51 1019.9
20260906043537 76 337 6.0 10.0 0.00 0.00 0.00 51 1019.8
20260906043037 76 360 4.0 10.0 0.00 0.00 0.00 51 1020.0
20260906042534 76 360 6.0 10.0 0.00 0.00 0.00 51 1019.8
20260906042035 76 360 6.0 10.0 0.00 0.00 0.00 51 1020.0
20260906041534 76 342 5.0 10.0 0.00 0.00 0.00 51 1019.9
20260906041036 76 346 7.0 10.0 0.00 0.00 0.00 52 1020.0
20260906040532 76 329 5.0 9.0 0.00 0.00 0.00 52 1020.0
20260906040037 76 338 5.0 9.0 0.00 0.00 0.00 52 1020.1
20260906035531 76 340 4.0 9.0 0.00 0.00 0.00 52 1020.1
20260906035031 76 343 5.0 9.0 0.00 0.00 0.00 52 1020.1
20260906034539 76 346 6.0 9.0 0.00 0.00 0.00 51 1020.1
20260906034031 76 360 5.0 9.0 0.00 0.00 0.00 51 1020.1
20260906033530 76 329 4.0 10.0 0.00 0.00 0.00 51 1020.1
20260906033031 76 355 5.0 10.0 0.00 0.00 0.00 51 1020.1
20260906032528 76 355 6.0 10.0 0.00 0.00 0.00 52 1020.1
20260906032028 76 338 6.0 10.0 0.00 0.00 0.00 52 1020.3
20260906031527 76 355 5.0 9.0 0.00 0.00 0.00 52 1020.3
20260906031026 76 355 4.0 9.0 0.00 0.00 0.00 53 1020.4
20260906030526 75 340 6.0 10.0 0.00 0.00 0.00 53 1020.4
20260906030026 76 346 5.0 10.0 0.00 0.00 0.00 53 1020.4
20260906025527 76 340 6.0 9.0 0.00 0.00 0.00 53 1020.4
20260906025025 76 331 5.0 9.0 0.00 0.00 0.00 53 1020.5
20260906024524 76 309 3.0 8.0 0.00 0.00 0.00 53 1020.4
20260906024023 76 344 4.0 8.0 0.00 0.00 0.00 53 1020.5
20260906023523 76 344 5.0 8.0 0.00 0.00 0.00 53 1020.5
20260906023022 76 350 4.0 8.0 0.00 0.00 0.00 53 1020.4
20260906022521 75 346 4.0 8.0 0.00 0.00 0.00 53 1020.5
20260906022023 75 5 3.0 9.0 0.00 0.00 0.00 54 1020.3
20260906021521 75 355 4.0 9.0 0.00 0.00 0.00 54 1020.5
20260906021018 75 350 5.0 9.0 0.00 0.00 0.00 55 1020.6
20260906020518 75 343 5.0 9.0 0.00 0.00 0.00 55 1020.7
20260906020018 75 349 5.0 8.0 0.00 0.00 0.00 55 1020.6
20260906015518 75 360 3.0 8.0 0.00 0.00 0.00 56 1020.7
20260906015016 75 333 3.0 8.0 0.00 0.00 0.00 56 1020.8
20260906014526 75 330 3.0 6.0 0.00 0.00 0.00 56 1020.9
20260906014018 76 11 3.0 6.0 0.00 0.00 0.00 57 1021.0
20260906013515 76 315 3.0 6.0 0.00 0.00 0.00 57 1021.0
20260906013016 76 330 4.0 6.0 0.00 0.00 0.00 57 1021.0
20260906012513 76 351 3.0 6.0 0.00 0.00 0.00 57 1021.0
20260906012013 76 340 2.0 6.0 0.00 0.00 0.00 57 1021.1
20260906011521 76 338 2.0 6.0 0.00 0.00 0.00 57 1021.1
20260906011011 76 347 2.0 6.0 0.00 0.00 0.00 56 1021.0
20260906010511 76 321 1.0 4.0 0.00 0.00 0.00 56 1021.1
20260906010011 76 327 2.0 5.0 0.00 0.00 0.00 56 1021.1
20260906005510 76 327 2.0 6.0 0.00 0.00 0.00 56 1020.9
20260906005112 76 340 3.0 6.0 0.00 0.00 0.00 56 1021.0
20260906004512 77 340 1.0 6.0 0.00 0.00 0.00 56 1021.1
20260906004010 77 338 3.0 6.0 0.00 0.00 0.00 56 1021.0
20260906003508 77 327 3.0 8.0 0.00 0.00 0.00 56 1021.0
20260906003008 77 324 5.0 8.0 0.00 0.00 0.00 56 1020.9
20260906002506 77 329 3.0 6.0 0.00 0.00 0.00 56 1020.9
20260906002006 77 322 3.0 8.0 0.00 0.00 0.00 56 1020.9
20260906001505 78 5 3.0 8.0 0.00 0.00 0.00 57 1020.9
20260906001004 78 355 3.0 6.0 0.00 0.00 0.00 57 1020.9
20260906000508 78 341 0.0 3.0 0.00 0.00 0.00 58 1020.9
20260906000004 78 341 1.0 4.0 0.00 0.00 0.00 58 1021.0
20260905235503 78 317 1.0 4.0 0.00 0.00 0.00 58 1021.2
20260905235004 78 287 1.0 4.0 0.00 0.00 0.00 58 1021.1
20260905234503 79 287 1.0 4.0 0.00 0.00 0.00 57 1021.0
20260905234003 79 259 1.0 3.0 0.00 0.00 0.00 58 1021.1
20260905233503 79 259 1.0 3.0 0.00 0.00 0.00 57 1021.1
20260905233003 79 258 1.0 3.0 0.00 0.00 0.00 57 1021.1
20260905232501 79 257 1.0 3.0 0.00 0.00 0.00 56 1021.0
20260905232001 79 256 2.0 3.0 0.00 0.00 0.00 56 1021.0
20260905231601 79 333 1.0 2.0 0.00 0.00 0.00 56 1020.9
20260905231201 79 341 1.0 2.0 0.00 0.00 0.00 56 1020.8
20260905230559 79 342 0.0 3.0 0.00 0.00 0.00 56 1020.7
20260905230059 78 342 0.0 3.0 0.00 0.00 0.00 55 1020.7
20260905225558 78 336 0.0 5.0 0.00 0.00 0.00 55 1020.7
20260905225058 78 339 3.0 6.0 0.00 0.00 0.00 55 1020.7
20260905224558 78 315 2.0 6.0 0.00 0.00 0.00 55 1020.7
20260905224057 78 329 4.0 6.0 0.00 0.00 0.00 56 1020.7
20260905223557 78 336 3.0 5.0 0.00 0.00 0.00 56 1020.7
20260905223056 78 348 2.0 5.0 0.00 0.00 0.00 57 1020.8
20260905222556 78 308 2.0 6.0 0.00 0.00 0.00 57 1020.7
20260905222057 78 355 3.0 8.0 0.00 0.00 0.00 57 1020.8
20260905221555 78 360 3.0 8.0 0.00 0.00 0.00 57 1020.8
20260905221054 78 335 2.0 5.0 0.00 0.00 0.00 57 1020.9
20260905220552 78 329 2.0 6.0 0.00 0.00 0.00 57 1020.8
20260905220051 78 334 3.0 6.0 0.00 0.00 0.00 57 1020.8
20260905215551 78 335 3.0 6.0 0.00 0.00 0.00 58 1020.8
20260905215050 78 344 3.0 6.0 0.00 0.00 0.00 59 1020.9
20260905214550 78 342 4.0 6.0 0.00 0.00 0.00 59 1020.9
20260905214050 78 342 3.0 6.0 0.00 0.00 0.00 59 1021.0
20260905213552 78 347 2.0 5.0 0.00 0.00 0.00 59 1021.0
20260905213049 78 328 2.0 5.0 0.00 0.00 0.00 60 1021.0
20260905212549 78 319 2.0 4.0 0.00 0.00 0.00 60 1021.0
20260905212149 78 335 1.0 5.0 0.00 0.00 0.00 60 1021.0
20260905211548 78 346 1.0 8.0 0.00 0.00 0.00 61 1021.1
20260905211049 78 355 3.0 8.0 0.00 0.00 0.00 61 1020.9
20260905210551 78 346 3.0 6.0 0.00 0.00 0.00 61 1021.0
20260905210048 79 346 3.0 7.0 0.00 0.00 0.00 61 1021.1
20260905205547 79 350 2.0 5.0 0.00 0.00 0.00 61 1021.1
20260905205050 79 11 2.0 5.0 0.00 0.00 0.00 61 1021.1
20260905204558 79 360 0.0 5.0 0.00 0.00 0.00 61 1021.2
20260905204050 79 360 2.0 5.0 0.00 0.00 0.00 61 1021.2
20260905203546 79 5 1.0 4.0 0.00 0.00 0.00 61 1021.1
20260905203054 79 294 0.0 3.0 0.00 0.00 0.00 60 1021.0
20260905202546 79 294 1.0 3.0 0.00 0.00 0.00 60 1021.0
20260905202046 79 321 1.0 5.0 0.00 0.00 0.00 63 1020.9
20260905201546 79 360 1.0 5.0 0.00 0.00 0.00 64 1020.7
20260905201046 79 355 0.0 4.0 0.00 0.00 0.00 64 1020.7
20260905200546 79 323 2.0 4.0 0.00 0.00 0.00 65 1020.7
20260905200053 79 351 1.0 4.0 0.00 0.00 0.00 66 1020.7
20260905195545 79 328 0.0 4.0 0.00 0.00 0.00 67 1020.7
20260905195045 79 328 1.0 5.0 0.00 0.00 0.00 66 1020.7
20260905194548 79 344 3.0 5.0 0.00 0.00 0.00 67 1020.5
20260905194045 79 348 3.0 6.0 0.00 0.00 0.00 67 1020.5
20260905193545 79 351 3.0 6.0 0.00 0.00 0.00 68 1020.4
20260905193100 79 355 2.0 4.0 0.00 0.00 0.00 68 1020.4
20260905192545 79 360 1.0 6.0 0.00 0.00 0.00 68 1020.4
20260905192044 79 350 2.0 4.0 0.00 0.00 0.00 69 1020.3
20260905191552 79 72 1.0 3.0 0.00 0.00 0.00 69 1020.3
20260905191045 79 117 0.0 1.0 0.00 0.00 0.00 68 1020.3
20260905190546 79 117 0.0 0.0 0.00 0.00 0.00 68 1020.3
20260905190049 79 117 0.0 0.0 0.00 0.00 0.00 68 1020.3
20260905185543 79 117 0.0 2.0 0.00 0.00 0.00 68 1020.3
20260905185043 79 117 0.0 2.0 0.00 0.00 0.00 68 1020.3
20260905184543 79 118 0.0 1.0 0.00 0.00 0.00 68 1020.2
20260905184043 80 118 0.0 1.0 0.00 0.00 0.00 67 1020.2
20260905183543 80 118 0.0 0.0 0.00 0.00 0.00 67 1020.1
20260905183043 80 118 0.0 0.0 0.00 0.00 0.00 66 1020.2
20260905182542 80 118 0.0 0.0 0.00 0.00 0.00 66 1020.1
20260905182042 80 118 0.0 0.0 0.00 0.00 0.00 66 1020.1
20260905181544 80 118 0.0 2.0 0.00 0.00 0.00 66 1020.2
20260905181042 80 118 0.0 3.0 0.00 0.00 0.00 66 1020.1
20260905180544 81 118 1.0 3.0 0.00 0.00 0.00 66 1020.0
20260905180044 81 118 0.0 3.0 0.00 0.00 0.00 66 1020.1
20260905175542 81 118 0.0 3.0 0.00 0.00 0.00 66 1020.0
20260905175041 81 118 0.0 3.0 0.00 0.00 0.00 65 1019.9
20260905174541 82 118 0.0 1.0 0.00 0.00 0.00 65 1019.9
20260905174041 82 118 0.0 1.0 0.00 0.00 0.00 65 1019.8
20260905173542 82 118 0.0 0.0 0.00 0.00 0.00 65 1019.8
20260905173041 82 118 0.0 0.0 0.00 0.00 0.00 65 1019.8
20260905172541 82 118 0.0 2.0 0.00 0.00 0.00 66 1019.9
20260905172041 82 118 0.0 3.0 0.00 0.00 0.00 65 1019.8
20260905171540 82 117 1.0 3.0 0.00 0.00 0.00 65 1019.7
20260905171041 82 118 1.0 3.0 0.00 0.00 0.00 65 1019.7
20260905170542 82 117 1.0 3.0 0.00 0.00 0.00 64 1019.8
20260905170047 83 117 2.0 4.0 0.00 0.00 0.00 64 1019.6
20260905165542 83 117 2.0 4.0 0.00 0.00 0.00 63 1019.7
20260905165040 84 119 2.0 4.0 0.00 0.00 0.00 63 1019.8
20260905164540 84 118 1.0 3.0 0.00 0.00 0.00 63 1019.6
20260905164040 84 118 1.0 3.0 0.00 0.00 0.00 63 1019.5
20260905163539 84 113 1.0 3.0 0.00 0.00 0.00 62 1019.5
20260905163039 84 110 2.0 3.0 0.00 0.00 0.00 62 1019.5
20260905162543 84 107 1.0 3.0 0.00 0.00 0.00 62 1019.6
20260905162038 84 107 1.0 3.0 0.00 0.00 0.00 62 1019.5
20260905161538 84 107 1.0 3.0 0.00 0.00 0.00 61 1019.5
20260905161039 84 107 1.0 3.0 0.00 0.00 0.00 61 1019.6
20260905160538 84 106 2.0 6.0 0.00 0.00 0.00 62 1019.6
20260905160045 84 101 1.0 6.0 0.00 0.00 0.00 62 1019.6
20260905155541 84 123 2.0 5.0 0.00 0.00 0.00 62 1019.6
20260905155039 84 104 2.0 7.0 0.00 0.00 0.00 63 1019.6
20260905154538 84 109 2.0 9.0 0.00 0.00 0.00 62 1019.6
20260905154040 85 112 5.0 8.0 0.00 0.00 0.00 61 1019.6
20260905153539 86 128 5.0 8.0 0.00 0.00 0.00 60 1019.6
20260905153039 86 113 4.0 7.0 0.00 0.00 0.00 60 1019.5
20260905152537 86 170 3.0 6.0 0.00 0.00 0.00 60 1019.5
20260905152038 86 169 2.0 7.0 0.00 0.00 0.00 60 1019.4
20260905151536 86 115 3.0 8.0 0.00 0.00 0.00 59 1019.3
20260905151036 86 130 4.0 7.0 0.00 0.00 0.00 60 1019.3
20260905150539 87 140 2.0 6.0 0.00 0.00 0.00 61 1019.3
20260905150039 86 132 3.0 6.0 0.00 0.00 0.00 60 1019.4
20260905145535 86 121 0.0 7.0 0.00 0.00 0.00 60 1019.3
20260905145035 86 117 4.0 8.0 0.00 0.00 0.00 60 1019.4
20260905144543 87 146 2.0 7.0 0.00 0.00 0.00 58 1019.4
20260905144039 87 174 3.0 9.0 0.00 0.00 0.00 57 1019.4
20260905143536 88 132 3.0 9.0 0.00 0.00 0.00 59 1019.4
20260905143048 88 118 3.0 6.0 0.00 0.00 0.00 59 1019.5
20260905142534 87 130 2.0 7.0 0.00 0.00 0.00 59 1019.5
20260905142036 87 107 4.0 7.0 0.00 0.00 0.00 57 1019.7
20260905141535 88 117 3.0 9.0 0.00 0.00 0.00 56 1019.6
20260905141036 88 125 4.0 9.0 0.00 0.00 0.00 55 1019.5
20260905140534 88 172 4.0 10.0 0.00 0.00 0.00 55 1019.6
20260905140034 88 196 5.0 10.0 0.00 0.00 0.00 54 1019.6
20260905135533 89 173 5.0 10.0 0.00 0.00 0.00 54 1019.7
20260905135033 89 171 4.0 9.0 0.00 0.00 0.00 56 1019.8
20260905134531 88 181 4.0 7.0 0.00 0.00 0.00 57 1019.7
20260905134031 88 152 1.0 8.0 0.00 0.00 0.00 57 1019.8
20260905133533 88 105 3.0 9.0 0.00 0.00 0.00 57 1019.9
20260905133029 88 130 3.0 9.0 0.00 0.00 0.00 57 1020.1
20260905132528 87 201 4.0 9.0 0.00 0.00 0.00 57 1020.0
20260905132035 87 104 3.0 10.0 0.00 0.00 0.00 60 1020.1
20260905131541 86 171 3.0 11.0 0.00 0.00 0.00 59 1020.2
20260905131031 86 121 5.0 9.0 0.00 0.00 0.00 59 1020.1
20260905130527 86 130 4.0 10.0 0.00 0.00 0.00 59 1020.2
20260905130027 86 117 3.0 11.0 0.00 0.00 0.00 60 1020.3
20260905125529 85 165 6.0 11.0 0.00 0.00 0.00 60 1020.3
20260905125025 85 121 3.0 8.0 0.00 0.00 0.00 60 1020.3
20260905124534 85 137 3.0 8.0 0.00 0.00 0.00 60 1020.2
20260905124030 86 117 4.0 8.0 0.00 0.00 0.00 59 1020.4
20260905123528 86 166 3.0 11.0 0.00 0.00 0.00 61 1020.4
20260905123024 86 109 4.0 11.0 0.00 0.00 0.00 60 1020.4
20260905122528 86 165 6.0 11.0 0.00 0.00 0.00 58 1020.3
20260905122025 86 126 4.0 8.0 0.00 0.00 0.00 59 1020.3
20260905121523 86 112 4.0 10.0 0.00 0.00 0.00 58 1020.4
20260905121025 86 148 5.0 10.0 0.00 0.00 0.00 59 1020.4
20260905120522 86 176 2.0 11.0 0.00 0.00 0.00 60 1020.4
20260905120021 87 180 4.0 8.0 0.00 0.00 0.00 61 1020.4
20260905115520 86 166 3.0 9.0 0.00 0.00 0.00 62 1020.6
20260905115019 86 176 3.0 9.0 0.00 0.00 0.00 61 1020.7
20260905114532 86 180 5.0 9.0 0.00 0.00 0.00 62 1020.8
20260905114018 86 144 3.0 7.0 0.00 0.00 0.00 65 1020.8
20260905113521 86 118 1.0 8.0 0.00 0.00 0.00 66 1020.9
20260905113030 86 121 4.0 9.0 0.00 0.00 0.00 67 1021.0
20260905112516 86 140 3.0 9.0 0.00 0.00 0.00 67 1021.1
20260905112014 85 109 2.0 7.0 0.00 0.00 0.00 69 1021.2
20260905111514 85 113 3.0 7.0 0.00 0.00 0.00 71 1021.3
20260905111013 85 145 2.0 7.0 0.00 0.00 0.00 71 1021.2
20260905110512 84 147 1.0 7.0 0.00 0.00 0.00 71 1021.3
20260905110010 84 105 4.0 7.0 0.00 0.00 0.00 73 1021.3
20260905105510 84 115 2.0 6.0 0.00 0.00 0.00 74 1021.4
20260905105009 83 130 2.0 7.0 0.00 0.00 0.00 74 1021.4
20260905104518 83 117 4.0 7.0 0.00 0.00 0.00 73 1021.5
20260905104008 84 126 3.0 8.0 0.00 0.00 0.00 73 1021.4
20260905103507 84 105 4.0 8.0 0.00 0.00 0.00 73 1021.4
20260905103019 84 109 3.0 9.0 0.00 0.00 0.00 72 1021.4
20260905102507 84 126 6.0 9.0 0.00 0.00 0.00 72 1021.2
20260905102006 85 127 5.0 9.0 0.00 0.00 0.00 71 1021.2
20260905101504 85 163 2.0 6.0 0.00 0.00 0.00 72 1021.2
20260905101002 85 194 3.0 8.0 0.00 0.00 0.00 70 1021.1
20260905100501 85 109 1.0 8.0 0.00 0.00 0.00 68 1021.0
20260905100109 84 140 1.0 7.0 0.00 0.00 0.00 67 1020.9
20260905095558 84 138 2.0 7.0 0.00 0.00 0.00 72 1020.8
20260905095058 83 132 4.0 7.0 0.00 0.00 0.00 73 1020.7
20260905094556 82 182 2.0 5.0 0.00 0.00 0.00 74 1020.6
20260905094054 82 176 2.0 5.0 0.00 0.00 0.00 75 1020.5
20260905093553 82 178 0.0 5.0 0.00 0.00 0.00 75 1020.5